Riverbank, California, United States (95367)
Lat: 37.74N, Lon: 120.93W
Wx Zone: CAZ019
Local Info
Past Weather Observations for Monday, September 26, 2016

NOTE: This archive is for the closest National Weather Service station to Riverbank. Information may differ from the station used for current weather conditions.

Click here for Long-term Archive

Time Weather Temperature Dewpoint Humidity Pressure Winds Precip Visibility
23:53
Clear
70°F / 21°C 54°F / 12°C 57% 29.89 in
(1012 mb)
Calm - 10SM
22:53
Clear
72°F / 22°C 55°F / 13°C 57% 29.92 in
(1013 mb)
Calm - 10SM
21:53
Clear
75°F / 24°C 54°F / 12°C 47% 29.92 in
(1013 mb)
Calm - 10SM
20:53
Clear
79°F / 26°C 55°F / 13°C 45% 29.92 in
(1013 mb)
Calm - 10SM
19:53
Clear
81°F / 27°C 55°F / 13°C 42% 29.89 in
(1012 mb)
Calm - 10SM
18:53
Partly Cloudy
84°F / 29°C 55°F / 13°C 37% 29.89 in
(1012 mb)
Calm - 10SM
17:53
Mostly Cloudy
91°F / 33°C 46°F / 8°C 21% 29.89 in
(1012 mb)
NW 4.6 mph
(NW 7 kph)
- 10SM
16:53
Mostly Cloudy
97°F / 36°C 46°F / 8°C 18% 29.89 in
(1012 mb)
N 8.1 mph
(N 13 kph)
- 10SM
15:53
Overcast
99°F / 37°C 43°F / 6°C 15% 29.89 in
(1012 mb)
NW 9.2 mph
(NW 15 kph)
- 10SM
14:53
Mostly Cloudy
100°F / 38°C 46°F / 8°C 16% 29.92 in
(1013 mb)
ENE 3.5 mph
(ENE 6 kph)
- 10SM
13:53
Mostly Cloudy
97°F / 36°C 46°F / 8°C 18% 29.95 in
(1014 mb)
Calm - 10SM
12:53
Partly Cloudy
97°F / 36°C 48°F / 9°C 19% 29.95 in
(1014 mb)
Variable 3.5 mph
(Variable 6 kph)
- 10SM
11:53
Partly Cloudy
93°F / 34°C 48°F / 9°C 21% 29.98 in
(1015 mb)
Calm - 10SM
10:53
Clear
90°F / 32°C 50°F / 10°C 26% 30.01 in
(1016 mb)
Variable 3.5 mph
(Variable 6 kph)
- 10SM
09:53
Clear
84°F / 29°C 52°F / 11°C 33% 30.01 in
(1016 mb)
SE 4.6 mph
(SE 7 kph)
- 9SM
08:53
Clear
79°F / 26°C 54°F / 12°C 42% 30.04 in
(1017 mb)
E 4.6 mph
(E 7 kph)
- 8SM
07:53
Clear
Hazy
72°F / 22°C 52°F / 11°C 50% 30.01 in
(1016 mb)
ESE 6.9 mph
(ESE 11 kph)
- 6SM
06:53
Clear
63°F / 17°C 54°F / 12°C 73% 30.01 in
(1016 mb)
SE 5.8 mph
(SE 9 kph)
- 7SM
05:53
Clear
61°F / 16°C 52°F / 11°C 72% 30.01 in
(1016 mb)
E 3.5 mph
(E 6 kph)
- 10SM
04:53
Clear
63°F / 17°C 54°F / 12°C 73% 29.98 in
(1015 mb)
Calm - 10SM
03:53
Clear
63°F / 17°C 52°F / 11°C 68% 29.98 in
(1015 mb)
Calm - 10SM
02:53
Clear
64°F / 18°C 52°F / 11°C 64% 29.95 in
(1014 mb)
Calm - 10SM
01:53
Clear
66°F / 19°C 54°F / 12°C 64% 29.95 in
(1014 mb)
E 5.8 mph
(E 9 kph)
- 10SM
00:53
Clear
66°F / 19°C 54°F / 12°C 64% 29.98 in
(1015 mb)
ESE 5.8 mph
(ESE 9 kph)
- 10SM
Time Weather Temperature Dewpoint Humidity Pressure Winds Precip Visibility


Weather for websites

WeatherForYou.com, LLC is not responsible for any damages or problems caused by this service. Current weather conditions are obtained from the closest station including government and personal stations which may have varying degrees of accuracy. Weather forecasts are derived from the NOAA NDFD. Like all things, this site belongs to Jesus Christ... He just trusts us to maintain it. If you have any questions or comments email webmaster@weatherforyou.com

Copyright © 2016, WeatherForYou.com LLC. All rights reserved.